Regional Weather Roundup
Issued by NWS

Home | Current Version | Previous Version | Graphics & Text | Print | Product List | Glossary On
Versions: 1 2 3 4 5 6 7 8 9 10 11 12 13 14 15 16 17 18 19 20 21 22 23 24 25 26 27 28 29 30 31 32 33 34 35 36 37 38 39 40 41 42 43 44 45 46 47 48 49 50
000
ASUS43 KOAX 201010
RWRNE

WEATHER ROUNDUP FOR NEBRASKA
NATIONAL WEATHER SERVICE OMAHA NE
500 AM CDT MON OCT 20 2014

NOTES: SATELLITE DATA IS BEING USED TO AUGMENT CLOUD COVER ABOVE
       12000 FEET.
       "FAIR" INDICATES FEW OR NO CLOUDS BELOW 12,000 FEET WITH NO
       SIGNIFICANT WEATHER AND/OR OBSTRUCTIONS TO VISIBILITY.

  * THESE STATIONS DO NOT REPORT WEATHER SUCH AS RAIN...SNOW OR FOG.

NEZ001>004-019>022-054>056-201100-
NEBRASKA PANHANDLE

CITY           SKY/WX    TMP DP  RH WIND       PRES   REMARKS
SCOTTSBLUFF    CLEAR     39  35  86 N7        30.11F WCI  34
ALLIANCE       CLEAR     33  29  85 CALM      30.11F
CHADRON        CLEAR     35  33  92 CALM      30.08F
KIMBALL        CLEAR     37  32  83 W5        30.13S WCI  33
SIDNEY         CLEAR     37  33  85 W8        30.13F WCI  31
$$

NEZ057>060-069>072-079>082-201100-
SOUTHWEST NEBRASKA

CITY           SKY/WX    TMP DP  RH WIND       PRES   REMARKS
NORTH PLATTE   CLEAR     36  34  92 CALM      30.10S
IMPERIAL       CLEAR     40  33  76 CALM      30.11F
LEXINGTON      CLEAR     40  38  91 W6        30.08R
MCCOOK         CLEAR     40  37  89 SW7       30.09S
OGALLALA       CLEAR     37  34  91 W5        30.11S WCI  33
$$

NEZ005>010-023>029-035>040-094-201100-
NORTH CENTRAL NEBRASKA

CITY           SKY/WX    TMP DP  RH WIND       PRES   REMARKS
VALENTINE      CLEAR     33  31  92 W5        30.10R WCI  29
AINSWORTH      CLEAR     39  35  85 W6        30.09R WCI  35
BROKEN BOW     CLEAR     37  33  85 CALM      30.07S
O`NEILL        CLEAR     45  39  79 NW6       30.07R
ORD            CLEAR     40  36  86 NW3       30.06R
THEDFORD       CLEAR     40  36  85 W6        30.11R
$$

NEZ041-046>049-061>064-073>077-083>087-201100-
SOUTH CENTRAL NEBRASKA

CITY           SKY/WX    TMP DP  RH WIND       PRES   REMARKS
GRAND ISLAND   CLEAR     44  41  89 W6        30.06R
AURORA         CLEAR     43  41  93 W5        30.04S
HASTINGS       CLEAR     49  43  80 CALM      30.05R
HEBRON         CLEAR     46  44  91 CALM      30.03S
HOLDREGE       CLEAR     44  41  88 CALM      30.06S
KEARNEY *      CLEAR     45  39  81 W8        30.07R
YORK           CLEAR     45  43  93 NW6       30.03S
$$

NEZ011>018-030>034-042>045-201100-
NORTHEAST NEBRASKA

CITY           SKY/WX    TMP DP  RH WIND       PRES   REMARKS
NORFOLK        CLEAR     45  39  79 W6        30.04R
ALBION         CLEAR     45  38  76 NW9       30.05R
BLAIR          CLEAR     52  46  77 N10       29.99R
COLUMBUS *     CLEAR     45  37  76 CALM      30.04R
FREMONT        CLEAR     44  42  93 W5        30.01R
TEKAMAH        FAIR      44  41  89 N8        30.01R
WAYNE          CLEAR     38  35  88 CALM      30.04R
$$

NEZ050>053-065>068-078-088>093-201100-
SOUTHEAST NEBRASKA

CITY           SKY/WX    TMP DP  RH WIND       PRES   REMARKS
LINCOLN        CLEAR     45  42  89 CALM      30.02R
OMAHA EPPLEY   CLEAR     49  45  86 N7        30.00R
BEATRICE       CLEAR     43  42  97 CALM      30.01S
FALLS CITY     CLEAR     51  48  89 W7        29.97F
NEBRASKA CITY  CLEAR     53  47  80 W6        29.98R
PLATTSMOUTH    CLEAR     51  47  84 NW7       29.99R
$$

NEZ044-045-051>053-067-201100-
OMAHA AREA

CITY           SKY/WX    TMP DP  RH WIND       PRES   REMARKS
OMAHA EPPLEY   CLEAR     49  45  86 N7        30.00R
BLAIR          CLEAR     52  46  77 N10       29.99R
FREMONT        CLEAR     44  42  93 W5        30.01R
MILLARD        CLEAR     49  46  90 NW3       30.00R
OFFUTT AFB     CLEAR     47  47 100 W9        29.99R
PLATTSMOUTH    CLEAR     51  47  84 NW7       29.99R
WAHOO          FAIR      49  42  76 N8        30.01R
$$


USA.gov is the U.S. government's official web portal to all federal, state and local government web resources and services.